Flag for Denmark Weather past 2 weeks in Roskilde, Denmark

Now
59 °F

Partly sunny.


Feels Like: 56 °F
Forecast: 48 / 64 °F
Wind: 16 mph from Northwest

Location: Koebenhavn / Roskilde

Current Time: Jul 31, 2015 at 8:06:07 PM

Latest Report: Jul 31, 2015 at 7:20 PM


Visibility: N/A

Pressure: 29.98 "Hg

Humidity: 63%

Dew point: 46 °F

Location of RoskildeLocation

Historic Weather in Roskilde — Graph

°F

Roskilde temperature yesterday

Maximum temperature yesterday: 68 °F (at 3:50 PM)
Minimum temperature yesterday: 43 °F (at 5:50 AM)
Average temperature yesterday: 58 °F

Past Weeks' High & Low Weather Summary

 TemperatureHumidityPressure
High75 °F (Jul 22, 2:20 PM)100% (Jul 18, 2:50 AM)30.07 "Hg (Jul 18, 2:50 AM)
Low43 °F (Jul 17, 5:20 AM)30% (Jul 17, 1:20 PM)29.39 "Hg (Jul 28, 4:50 AM)
Average60 °F78%29.75 "Hg
* Reported Jul 16 6:20 PM — Jul 31 6:50 PM, Roskilde, Weather by CustomWeather, © 2015

Note: Actual official high and low records may vary slightly from our data, if they occured in-between our weather recording intervals... More about our weather records

Advertising

Roskilde weather history for previous 24 hours

 ConditionsComfort  
Time TempWeatherWind HumidityBarometerVisibility
6:50 PM
Fri, Jul 31
61 °FPartly sunny.14 mph63%29.98 "HgN/A
6:20 PM59 °FPartly sunny.15 mph63%29.98 "HgN/A
5:50 PM59 °FPartly sunny.18 mph63%29.98 "HgN/A
5:20 PM59 °FPartly sunny.15 mph63%29.98 "HgN/A
4:50 PM59 °FPartly sunny.14 mph63%29.98 "HgN/A
4:20 PM59 °FPartly sunny.17 mph63%29.98 "HgN/A
3:50 PM59 °FPartly sunny.17 mph63%29.98 "HgN/A
3:20 PM61 °FBroken clouds.16 mph59%29.95 "HgN/A
2:50 PM61 °FPartly sunny.15 mph59%29.95 "HgN/A
2:20 PM61 °FBroken clouds.18 mph59%29.95 "HgN/A
1:50 PM61 °FPartly sunny.18 mph59%29.95 "HgN/A
1:20 PM61 °FBroken clouds.20 mph59%29.95 "HgN/A
12:50 PM59 °FBroken clouds.20 mph63%29.95 "HgN/A
12:20 PM59 °FPartly sunny.21 mph63%29.92 "HgN/A
11:50 AM59 °FPartly sunny.16 mph68%29.92 "HgN/A
11:20 AM59 °FPartly sunny.16 mph63%29.92 "HgN/A
10:50 AM57 °FPartly sunny.18 mph67%29.92 "HgN/A
10:20 AM59 °FPartly sunny.17 mph59%29.92 "HgN/A
9:20 AM59 °FScattered clouds.20 mph63%29.89 "HgN/A
8:50 AM57 °FPassing clouds.17 mph72%29.89 "HgN/A
8:20 AM57 °FCool.18 mph72%29.89 "HgN/A
7:50 AM55 °FPassing clouds.10 mph77%29.86 "HgN/A
7:20 AM52 °FPartly sunny.10 mph82%29.86 "HgN/A
6:50 AM54 °FPartly sunny.12 mph77%29.86 "HgN/A
6:20 AM54 °FPartly sunny.13 mph77%29.86 "HgN/A
5:50 AM54 °FPassing clouds.15 mph82%29.86 "HgN/A
5:20 AM54 °FPartly cloudy.15 mph88%29.83 "HgN/A
4:50 AM54 °FMostly cloudy.16 mph88%29.83 "HgN/A
4:20 AM54 °FPassing clouds.16 mph88%29.83 "HgN/A
3:50 AM54 °FMostly cloudy.16 mph88%29.80 "HgN/A
3:20 AM54 °FPassing clouds.15 mph94%29.80 "HgN/A
2:50 AM55 °FMostly cloudy.15 mph88%29.80 "HgN/A
2:20 AM55 °FPartly cloudy.14 mph94%29.80 "HgN/A
1:50 AM55 °FOvercast.14 mph94%29.77 "HgN/A
1:20 AM55 °FPassing clouds.16 mph94%29.77 "HgN/A
12:50 AM57 °FMostly cloudy.15 mph94%29.77 "HgN/A
12:20 AM57 °FSprinkles. Passing clouds.15 mph94%29.74 "HgN/A
11:20 PM
Thu, Jul 30
59 °FPartly cloudy.10 mph94%29.74 "HgN/A
10:50 PM59 °FPartly cloudy.10 mph94%29.71 "HgN/A
10:20 PM59 °FPartly sunny.9 mph94%29.71 "HgN/A
9:50 PM59 °FSprinkles. Partly sunny.10 mph94%29.71 "HgN/A
9:20 PM59 °FRain showers. Partly sunny.12 mph100%29.71 "HgN/A
8:50 PM59 °FLight rain. Partly sunny.12 mph100%29.68 "Hg6 mi
8:20 PM61 °FPartly sunny.12 mph88%29.68 "HgN/A
Weather by CustomWeather, © 2015

See weather overviewHow to use our weather pages